This is the latest recevied weather packets stored in our database for station/object KJ4RDP-13. If no packets are shown the sender has not sent any weather packets the latest 10 day(s).
| Time | Temp. | Humidity | Pressure | Rain* | Wind** | Luminosity | Snow |
|---|---|---|---|---|---|---|---|
| 1777827624 | 14.44° C | 45% | 1018.5 hPa | 0 mm | - | 702 W/m² | - |
| 1777827321 | 13.89° C | 42% | 1018.5 hPa | 0 mm | - | 693 W/m² | - |
| 1777827017 | 13.89° C | 47% | 1018.9 hPa | 0 mm | - | 698 W/m² | - |
| 1777826714 | 13.89° C | 45% | 1019.3 hPa | 0 mm | - | 675 W/m² | - |
| 1777826411 | 13.89° C | 43% | 1018.9 hPa | 0 mm | - | 674 W/m² | - |
| 1777826108 | 13.89° C | 45% | 1018.9 hPa | 0 mm | - | 675 W/m² | - |
| 1777825805 | 13.33° C | 49% | 1019.3 hPa | 0 mm | - | 661 W/m² | - |
| 1777825502 | 12.78° C | 49% | 1019.3 hPa | 0 mm | - | 593 W/m² | - |
| 1777825200 | 12.78° C | 50% | 1019.3 hPa | 0 mm | - | 607 W/m² | - |
| 1777824896 | 12.78° C | 44% | 1019.3 hPa | 0 mm | - | 656 W/m² | - |
| 1777824592 | 12.78° C | 47% | 1019.3 hPa | 0 mm | - | 656 W/m² | - |
| 1777824290 | 12.22° C | 48% | 1019.3 hPa | 0 mm | - | 655 W/m² | - |
| 1777823984 | 12.22° C | 48% | 1019.6 hPa | 0 mm | - | 647 W/m² | - |
| 1777823682 | 12.22° C | 50% | 1019.3 hPa | 0 mm | - | 647 W/m² | - |
| 1777823378 | 12.22° C | 52% | 1019.3 hPa | 0 mm | - | 645 W/m² | - |
| 1777823077 | 12.22° C | 53% | 1019.6 hPa | 0 mm | - | 638 W/m² | - |
| 1777822774 | 12.22° C | 52% | 1019.6 hPa | 0 mm | - | 641 W/m² | - |
| 1777822472 | 12.22° C | 53% | 1019.6 hPa | 0 mm | - | 588 W/m² | - |
| 1777822170 | 11.67° C | 55% | 1019.6 hPa | 0 mm | - | 611 W/m² | - |
| 1777821866 | 11.11° C | 56% | 1019.6 hPa | 0 mm | - | 637 W/m² | - |
| 1777821564 | 11.11° C | 58% | 1019.6 hPa | 0 mm | - | 630 W/m² | - |
| 1777821262 | 11.67° C | 55% | 1019.6 hPa | 0 mm | - | 638 W/m² | - |
| 1777820958 | 11.11° C | 57% | 1019.6 hPa | 0 mm | - | 637 W/m² | - |
| 1777820655 | 11.11° C | 56% | 1019.6 hPa | 0 mm | - | 635 W/m² | - |
| 1777820351 | 10.56° C | 56% | 1019.6 hPa | 0 mm | - | 628 W/m² | - |
* Rain latest hour (hover to see other rain measurements)
** Current wind speed in m/s (hover to see current wind gust speed)